Time,TemperatureF,DewpointF,PressureIn,WindDirection,WindDirectionDegrees,WindSpeedMPH,WindSpeedGustMPH,Humidity,HourlyPrecipIn,Conditions,Clouds,dailyrainin,SoftwareType,DateUTC
2013-02-27 00:11:00,40.2,30.0,30.17,NNW,330,0.0,-999.0,68,-99.99,,,0.00,weatherlink.com 1.10,2013-02-27 08:11:00,
2013-02-27 00:26:00,39.6,31.0,30.17,NNW,330,0.0,-999.0,70,-99.99,,,0.00,weatherlink.com 1.10,2013-02-27 08:26:00,
2013-02-27 00:41:00,39.1,30.0,30.18,NNW,330,1.0,-999.0,70,-99.99,,,0.00,weatherlink.com 1.10,2013-02-27 08:41:00,
2013-02-27 00:56:00,38.9,30.0,30.18,NNW,330,0.0,-999.0,70,-99.99,,,0.00,weatherlink.com 1.10,2013-02-27 08:56:00,
2013-02-27 01:11:00,39.1,30.0,30.18,NNW,330,0.0,-999.0,70,-99.99,,,0.00,weatherlink.com 1.10,2013-02-27 09:11:00,
2013-02-27 01:26:00,38.8,30.0,30.18,NNW,330,1.0,-999.0,71,-99.99,,,0.00,weatherlink.com 1.10,2013-02-27 09:26:00,
2013-02-27 01:41:00,38.6,30.0,30.18,NNW,330,0.0,-999.0,72,-99.99,,,0.00,weatherlink.com 1.10,2013-02-27 09:41:00,
2013-02-27 01:56:00,38.5,30.0,30.18,NNW,330,0.0,-999.0,71,-99.99,,,0.00,weatherlink.com 1.10,2013-02-27 09:56:00,
2013-02-27 02:11:00,37.9,30.0,30.19,NNW,330,0.0,-999.0,72,-99.99,,,0.00,weatherlink.com 1.10,2013-02-27 10:11:00,
2013-02-27 02:26:00,37.3,29.0,30.19,NNW,330,0.0,-999.0,72,-99.99,,,0.00,weatherlink.com 1.10,2013-02-27 10:26:00,
2013-02-27 02:41:00,36.8,29.0,30.19,NNW,330,0.0,-999.0,73,-99.99,,,0.00,weatherlink.com 1.10,2013-02-27 10:41:00,
2013-02-27 02:56:00,35.9,29.0,30.20,NNW,329,0.0,-999.0,76,-99.99,,,0.00,weatherlink.com 1.10,2013-02-27 10:56:00,
2013-02-27 03:11:00,35.3,29.0,30.20,NNW,330,0.0,-999.0,78,-99.99,,,0.00,weatherlink.com 1.10,2013-02-27 11:11:00,
2013-02-27 03:26:00,34.9,29.0,30.20,NNW,330,0.0,-999.0,78,-99.99,,,0.00,weatherlink.com 1.10,2013-02-27 11:26:00,
2013-02-27 03:41:00,34.4,28.0,30.20,NNW,330,0.0,-999.0,78,-99.99,,,0.00,weatherlink.com 1.10,2013-02-27 11:41:00,
2013-02-27 03:56:00,34.0,28.0,30.21,NNW,329,0.0,-999.0,80,-99.99,,,0.00,weatherlink.com 1.10,2013-02-27 11:56:00,
2013-02-27 04:11:00,33.8,29.0,30.21,NNW,329,0.0,-999.0,81,-99.99,,,0.00,weatherlink.com 1.10,2013-02-27 12:11:00,
2013-02-27 04:26:00,33.5,28.0,30.21,NNW,330,0.0,-999.0,81,-99.99,,,0.00,weatherlink.com 1.10,2013-02-27 12:26:00,
2013-02-27 04:41:00,33.2,28.0,30.21,NNW,329,0.0,-999.0,82,-99.99,,,0.00,weatherlink.com 1.10,2013-02-27 12:41:00,
2013-02-27 04:56:00,32.9,28.0,30.21,NNW,330,0.0,-999.0,82,-99.99,,,0.00,weatherlink.com 1.10,2013-02-27 12:56:00,
2013-02-27 05:11:00,32.8,28.0,30.21,NNW,330,0.0,-999.0,82,-99.99,,,0.00,weatherlink.com 1.10,2013-02-27 13:11:00,
2013-02-27 05:26:00,32.8,28.0,30.21,NNW,329,0.0,-999.0,83,-99.99,,,0.00,weatherlink.com 1.10,2013-02-27 13:26:00,
2013-02-27 05:41:00,32.8,28.0,30.22,NNW,329,0.0,-999.0,83,-99.99,,,0.00,weatherlink.com 1.10,2013-02-27 13:41:00,
2013-02-27 06:11:00,32.7,28.0,30.23,NNW,330,0.0,-999.0,84,-99.99,,,0.00,weatherlink.com 1.10,2013-02-27 14:11:00,
2013-02-27 06:26:00,33.5,29.0,30.24,NNW,330,0.0,-999.0,84,-99.99,,,0.00,weatherlink.com 1.10,2013-02-27 14:26:00,
2013-02-27 06:41:00,34.0,29.0,30.25,NNW,330,0.0,-999.0,82,-99.99,,,0.00,weatherlink.com 1.10,2013-02-27 14:41:00,
2013-02-27 06:56:00,33.8,29.0,30.25,NNW,330,0.0,-999.0,81,-99.99,,,0.00,weatherlink.com 1.10,2013-02-27 14:56:00,
2013-02-27 07:11:00,34.0,29.0,30.25,NNW,329,0.0,-999.0,82,-99.99,,,0.00,weatherlink.com 1.10,2013-02-27 15:11:00,
2013-02-27 07:26:00,34.4,29.0,30.25,NNW,329,0.0,-999.0,82,-99.99,,,0.00,weatherlink.com 1.10,2013-02-27 15:26:00,
2013-02-27 07:41:00,34.9,30.0,30.27,NNW,330,0.0,-999.0,82,-99.99,,,0.00,weatherlink.com 1.10,2013-02-27 15:41:00,
2013-02-27 07:56:00,35.5,31.0,30.27,NNW,330,0.0,-999.0,82,-99.99,,,0.00,weatherlink.com 1.10,2013-02-27 15:56:00,
2013-02-27 08:11:00,36.0,31.0,30.27,NNW,329,0.0,-999.0,82,-99.99,,,0.00,weatherlink.com 1.10,2013-02-27 16:11:00,
2013-02-27 08:26:00,37.9,33.0,30.28,NNW,330,0.0,-999.0,82,-99.99,,,0.00,weatherlink.com 1.10,2013-02-27 16:26:00,
2013-02-27 08:41:00,40.9,33.0,30.28,NNW,329,0.0,-999.0,74,-99.99,,,0.00,weatherlink.com 1.10,2013-02-27 16:41:00,
2013-02-27 08:56:00,43.9,32.0,30.29,NNW,336,0.0,-999.0,63,-99.99,,,0.00,weatherlink.com 1.10,2013-02-27 16:56:00,
2013-02-27 09:11:00,46.5,32.0,30.29,NNW,336,0.0,-999.0,58,-99.99,,,0.00,weatherlink.com 1.10,2013-02-27 17:11:00,
2013-02-27 09:27:00,49.1,32.0,30.29,NNW,336,0.0,-999.0,52,-99.99,,,0.00,weatherlink.com 1.10,2013-02-27 17:27:00,
2013-02-27 09:57:00,53.8,30.0,30.29,NNW,336,0.0,-999.0,40,-99.99,,,0.00,weatherlink.com 1.10,2013-02-27 17:57:00,
2013-02-27 10:12:00,55.9,30.0,30.29,NNW,337,0.0,-999.0,38,-99.99,,,0.00,weatherlink.com 1.10,2013-02-27 18:12:00,
2013-02-27 10:27:00,57.6,30.0,30.28,SSE,153,3.0,-999.0,35,-99.99,,,0.00,weatherlink.com 1.10,2013-02-27 18:27:00,
2013-02-27 10:42:00,59.0,30.0,30.28,SE,125,5.0,-999.0,34,-99.99,,,0.00,weatherlink.com 1.10,2013-02-27 18:42:00,
2013-02-27 10:57:00,60.2,32.0,30.28,SSE,159,0.0,-999.0,34,-99.99,,,0.00,weatherlink.com 1.10,2013-02-27 18:57:00,
2013-02-27 11:12:00,61.6,29.0,30.27,SSE,153,3.0,-999.0,29,-99.99,,,0.00,weatherlink.com 1.10,2013-02-27 19:12:00,
2013-02-27 11:27:00,62.3,27.0,30.27,SSE,157,2.0,-999.0,26,-99.99,,,0.00,weatherlink.com 1.10,2013-02-27 19:27:00,
2013-02-27 11:42:00,63.7,28.0,30.27,SE,142,0.0,-999.0,26,-99.99,,,0.00,weatherlink.com 1.10,2013-02-27 19:42:00,
2013-02-27 11:57:00,64.7,31.0,30.27,SE,133,0.0,-999.0,28,-99.99,,,0.00,weatherlink.com 1.10,2013-02-27 19:57:00,
2013-02-27 12:12:00,65.2,29.0,30.27,South,182,4.0,-999.0,26,-99.99,,,0.00,weatherlink.com 1.10,2013-02-27 20:12:00,
2013-02-27 12:27:00,66.3,29.0,30.27,South,184,2.0,-999.0,25,-99.99,,,0.00,weatherlink.com 1.10,2013-02-27 20:27:00,
2013-02-27 12:42:00,66.9,28.0,30.25,East,90,2.0,-999.0,23,-99.99,,,0.00,weatherlink.com 1.10,2013-02-27 20:42:00,
2013-02-27 12:57:00,67.1,27.0,30.24,SSE,159,0.0,-999.0,22,-99.99,,,0.00,weatherlink.com 1.10,2013-02-27 20:57:00,
2013-02-27 13:12:00,67.6,32.0,30.24,SE,136,4.0,-999.0,27,-99.99,,,0.00,weatherlink.com 1.10,2013-02-27 21:12:00,
2013-02-27 13:27:00,67.9,33.0,30.23,SE,146,0.0,-999.0,28,-99.99,,,0.00,weatherlink.com 1.10,2013-02-27 21:27:00,
2013-02-27 13:42:00,68.8,32.0,30.23,ESE,114,0.0,-999.0,26,-99.99,,,0.00,weatherlink.com 1.10,2013-02-27 21:42:00,
2013-02-27 13:57:00,69.4,34.0,30.23,SE,139,5.0,-999.0,27,-99.99,,,0.00,weatherlink.com 1.10,2013-02-27 21:57:00,
2013-02-27 14:12:00,69.3,35.0,30.23,SE,134,2.0,-999.0,28,-99.99,,,0.00,weatherlink.com 1.10,2013-02-27 22:12:00,
2013-02-27 14:27:00,69.3,34.0,30.22,South,187,3.0,-999.0,27,-99.99,,,0.00,weatherlink.com 1.10,2013-02-27 22:27:00,
2013-02-27 14:42:00,69.8,34.0,30.22,SE,130,3.0,-999.0,27,-99.99,,,0.00,weatherlink.com 1.10,2013-02-27 22:42:00,
2013-02-27 14:57:00,69.8,33.0,30.22,ESE,122,5.0,-999.0,26,-99.99,,,0.00,weatherlink.com 1.10,2013-02-27 22:57:00,
2013-02-27 15:12:00,69.4,34.0,30.21,South,171,4.0,-999.0,27,-99.99,,,0.00,weatherlink.com 1.10,2013-02-27 23:12:00,
2013-02-27 15:27:00,69.1,35.0,30.21,SE,136,6.0,-999.0,28,-99.99,,,0.00,weatherlink.com 1.10,2013-02-27 23:27:00,
2013-02-27 15:42:00,69.3,35.0,30.21,SE,140,5.0,-999.0,28,-99.99,,,0.00,weatherlink.com 1.10,2013-02-27 23:42:00,
2013-02-27 15:58:00,69.1,34.0,30.21,SSE,167,5.0,-999.0,27,-99.99,,,0.00,weatherlink.com 1.10,2013-02-27 23:58:00,
2013-02-27 16:13:00,69.1,35.0,30.21,SE,136,5.0,-999.0,28,-99.99,,,0.00,weatherlink.com 1.10,2013-02-28 00:13:00,
2013-02-27 16:28:00,68.6,36.0,30.21,SSE,157,0.0,-999.0,30,-99.99,,,0.00,weatherlink.com 1.10,2013-02-28 00:28:00,
2013-02-27 16:43:00,68.3,37.0,30.21,SSE,161,0.0,-999.0,32,-99.99,,,0.00,weatherlink.com 1.10,2013-02-28 00:43:00,
2013-02-27 16:58:00,67.8,38.0,30.21,SSE,150,0.0,-999.0,33,-99.99,,,0.00,weatherlink.com 1.10,2013-02-28 00:58:00,
2013-02-27 17:13:00,67.6,38.0,30.21,SSE,155,0.0,-999.0,34,-99.99,,,0.00,weatherlink.com 1.10,2013-02-28 01:13:00,
2013-02-27 17:28:00,66.1,41.0,30.21,WNW,285,0.0,-999.0,40,-99.99,,,0.00,weatherlink.com 1.10,2013-02-28 01:28:00,
2013-02-27 17:43:00,64.5,42.0,30.22,WNW,285,0.0,-999.0,44,-99.99,,,0.00,weatherlink.com 1.10,2013-02-28 01:43:00,
2013-02-27 17:58:00,62.4,42.0,30.23,WNW,285,0.0,-999.0,47,-99.99,,,0.00,weatherlink.com 1.10,2013-02-28 01:58:00,
2013-02-27 18:13:00,59.6,41.0,30.23,WNW,285,2.0,-999.0,51,-99.99,,,0.00,weatherlink.com 1.10,2013-02-28 02:13:00,
2013-02-27 18:28:00,57.0,41.0,30.23,WNW,285,0.0,-999.0,56,-99.99,,,0.00,weatherlink.com 1.10,2013-02-28 02:28:00,
2013-02-27 18:43:00,55.4,41.0,30.25,WNW,285,1.0,-999.0,58,-99.99,,,0.00,weatherlink.com 1.10,2013-02-28 02:43:00,
2013-02-27 18:58:00,54.5,41.0,30.25,WNW,285,0.0,-999.0,61,-99.99,,,0.00,weatherlink.com 1.10,2013-02-28 02:58:00,
2013-02-27 19:13:00,54.2,41.0,30.26,WNW,285,0.0,-999.0,61,-99.99,,,0.00,weatherlink.com 1.10,2013-02-28 03:13:00,
2013-02-27 19:28:00,53.9,41.0,30.26,WNW,285,0.0,-999.0,62,-99.99,,,0.00,weatherlink.com 1.10,2013-02-28 03:28:00,
2013-02-27 19:43:00,53.6,41.0,30.27,WNW,285,0.0,-999.0,63,-99.99,,,0.00,weatherlink.com 1.10,2013-02-28 03:43:00,
2013-02-27 19:58:00,53.5,41.0,30.28,WNW,285,0.0,-999.0,64,-99.99,,,0.00,weatherlink.com 1.10,2013-02-28 03:58:00,
2013-02-27 20:27:00,53.3,42.0,30.29,WNW,285,0.0,-999.0,66,-99.99,,,0.00,weatherlink.com 1.10,2013-02-28 04:27:00,
2013-02-27 20:42:00,52.9,42.0,30.29,WNW,285,0.0,-999.0,67,-99.99,,,0.00,weatherlink.com 1.10,2013-02-28 04:42:00,
2013-02-27 21:12:00,52.5,42.0,30.30,WNW,285,0.0,-999.0,68,-99.99,,,0.00,weatherlink.com 1.10,2013-02-28 05:12:00,
2013-02-27 21:27:00,52.5,42.0,30.30,WNW,285,0.0,-999.0,68,-99.99,,,0.00,weatherlink.com 1.10,2013-02-28 05:27:00,
2013-02-27 21:42:00,52.3,42.0,30.30,WNW,285,0.0,-999.0,68,-99.99,,,0.00,weatherlink.com 1.10,2013-02-28 05:42:00,
2013-02-27 21:57:00,52.0,42.0,30.30,WNW,285,0.0,-999.0,69,-99.99,,,0.00,weatherlink.com 1.10,2013-02-28 05:57:00,
2013-02-27 22:12:00,51.9,42.0,30.31,WNW,285,0.0,-999.0,70,-99.99,,,0.00,weatherlink.com 1.10,2013-02-28 06:12:00,
2013-02-27 22:27:00,52.2,42.0,30.31,WNW,285,1.0,-999.0,69,-99.99,,,0.00,weatherlink.com 1.10,2013-02-28 06:27:00,
2013-02-27 22:42:00,53.6,42.0,30.32,WNW,285,0.0,-999.0,64,-99.99,,,0.00,weatherlink.com 1.10,2013-02-28 06:42:00,
2013-02-27 22:57:00,54.4,42.0,30.32,NW,311,4.0,-999.0,63,-99.99,,,0.00,weatherlink.com 1.10,2013-02-28 06:57:00,
2013-02-27 23:12:00,54.8,42.0,30.32,NW,317,1.0,-999.0,63,-99.99,,,0.00,weatherlink.com 1.10,2013-02-28 07:12:00,
2013-02-27 23:27:00,55.0,42.0,30.32,NW,315,0.0,-999.0,63,-99.99,,,0.00,weatherlink.com 1.10,2013-02-28 07:27:00,
2013-02-27 23:43:00,54.7,43.0,30.32,NW,315,0.0,-999.0,64,-99.99,,,0.00,weatherlink.com 1.10,2013-02-28 07:43:00,
2013-02-27 23:58:00,54.5,43.0,30.32,NW,314,0.0,-999.0,66,-99.99,,,0.00,weatherlink.com 1.10,2013-02-28 07:58:00,